Tracking 29040 objects as of 16-Jun-2024
HD Live streaming from Space Station
objects crossing your sky now

SL-14 DEB

Track SL-14 DEB now!
10-day predictions


NORAD ID: 26003
Int'l Code: 1991-068N
Perigee: 1,299.0 km
Apogee: 1,508.2 km
Inclination: 82.7 °
Period: 113.7 minutes
Semi major axis: 7774 km
RCS: 0.0354 m2 (small)
Launch date: September 28, 1991
Source: Commonwealth of Independent States (former USSR) (CIS)
Launch site: PLESETSK MISSILE AND SPACE COMPLEX (PKMTR)

Note: This is SATELLITE DEBRIS
Your satellite tracking list
Your tracking list is empty




NASA's NSSDC Master Catalog

Two Line Element Set (TLE):
1 26003U 91068N   24168.50419524  .00002795  00000-0  14209-1 0  9996
2 26003  82.7047 263.5557 0134524 197.3797 175.8314 12.66436047131975
Source of the keplerian elements: AFSPC